Date String (YYYY-MM-DD hh:mm:ss) UTC,Instrument flags,Ambient pressure (hPa),Sample flow (lpm),Bypass flow (lpm),Sample temperature (°C),Ambient temperature (°C),ASC tube jacket temperature (°C),LED temperature (°C),Box temperature (°C),Sample RH (%),Span deviation,Mass concentration (μg/m³),Mass concentration (μg/m³),Mass concentration (μg/m³)
DateTimeUTC,F1_M11,P_M11,Q1_M11,Q2_M11,T1_M11,T2_M11,T3_M11,T4_M11,T5_M11,U1_M11,ZSPAN_M11,X0_M11,X2_M11,X1_M11
2023-05-27 06:00:00,,0830.8,5.00,0.00,29.7,28.0,00.0,38.1,31.2,24.9,0000.0,0003.66,0002.35,0001.83
2023-05-27 06:01:00,,0830.8,5.01,0.00,29.7,28.0,00.0,38.1,31.2,24.9,0000.0,0003.71,0002.40,0001.85
2023-05-27 06:02:00,,0830.8,5.01,0.00,29.7,28.0,00.0,38.1,31.2,25.0,0000.0,0003.72,0002.47,0001.89
2023-05-27 06:03:00,,0830.8,5.00,0.00,29.7,28.0,00.0,38.1,31.2,25.1,0000.0,0003.78,0002.51,0001.92
2023-05-27 06:04:00,,0830.8,5.00,0.00,29.7,28.0,00.0,38.1,31.2,25.1,0000.0,0003.84,0002.54,0001.95
2023-05-27 06:05:00,,0830.8,4.99,0.00,29.7,28.0,00.0,38.1,31.2,25.0,0000.0,0003.82,0002.54,0001.94
2023-05-27 06:06:00,,0830.8,4.98,0.00,29.7,28.0,00.0,38.1,31.2,25.0,0000.0,0003.68,0002.50,0001.94
2023-05-27 06:07:00,,0830.8,5.00,0.00,29.7,28.0,00.0,38.1,31.2,24.9,0000.0,0003.55,0002.47,0001.94
2023-05-27 06:08:00,,0830.8,5.01,0.00,29.7,28.0,00.0,38.1,31.2,24.9,0000.0,0003.54,0002.48,0001.95
2023-05-27 06:09:00,,0830.8,5.00,0.00,29.7,28.0,00.0,38.1,31.2,24.9,0000.0,0003.60,0002.52,0001.97
2023-05-27 06:10:00,,0830.8,4.99,0.00,29.7,28.0,00.0,38.1,31.2,24.9,0000.0,0003.63,0002.52,0001.96
2023-05-27 06:11:00,,0830.8,5.00,0.00,29.7,28.0,00.0,38.1,31.2,24.9,0000.0,0003.55,0002.49,0001.96
2023-05-27 06:12:00,,0830.8,5.01,0.00,29.7,28.0,00.0,38.1,31.2,25.0,0000.0,0003.67,0002.50,0001.96
2023-05-27 06:13:00,,0830.9,5.01,0.00,29.7,28.0,00.0,38.1,31.2,24.8,0000.0,0003.76,0002.48,0001.94
2023-05-27 06:14:00,,0830.8,5.00,0.00,29.7,28.0,00.0,38.1,31.2,24.5,0000.0,0003.84,0002.49,0001.93
2023-05-27 06:15:00,,0830.8,5.00,0.00,29.7,28.0,00.0,38.1,31.2,24.6,0000.0,0003.89,0002.48,0001.92
2023-05-27 06:16:00,,0830.8,5.00,0.00,29.7,28.0,00.0,38.1,31.2,24.5,0000.0,0004.02,0002.55,0001.94
2023-05-27 06:17:00,,0830.9,5.00,0.00,29.6,28.0,00.0,38.1,31.2,24.4,0000.0,0004.13,0002.61,0001.97
2023-05-27 06:18:00,,0830.8,5.00,0.00,29.6,28.0,00.0,38.0,31.2,24.4,0000.0,0004.22,0002.63,0001.98
2023-05-27 06:19:00,,0830.8,5.00,0.00,29.6,27.9,00.0,38.0,31.2,24.4,0000.0,0004.23,0002.62,0001.98
2023-05-27 06:20:00,,0830.8,5.00,0.00,29.6,28.0,00.0,38.0,31.2,24.4,0000.0,0004.28,0002.64,0001.98
2023-05-27 06:21:00,,0830.8,4.99,0.00,29.6,27.9,00.0,38.0,31.2,24.7,0000.0,0004.30,0002.65,0001.99
2023-05-27 06:22:00,,0830.9,5.00,0.00,29.6,27.9,00.0,38.0,31.2,24.6,0000.0,0004.23,0002.63,0002.00
2023-05-27 06:23:00,,0830.9,5.00,0.00,29.6,27.9,00.0,38.0,31.2,25.0,0000.0,0004.53,0002.59,0002.00
2023-05-27 06:24:00,,0830.9,5.00,0.00,29.6,27.9,00.0,38.0,31.2,25.1,0000.0,0004.47,0002.59,0002.03
2023-05-27 06:25:00,,0830.9,5.00,0.00,29.6,27.9,00.0,38.0,31.2,25.2,0000.0,0004.53,0002.62,0002.05
2023-05-27 06:26:00,,0831.0,5.00,0.00,29.6,28.0,00.0,38.0,31.2,25.3,0000.0,0004.50,0002.64,0002.07
2023-05-27 06:27:00,,0831.0,5.00,0.00,29.6,28.0,00.0,38.0,31.2,25.4,0000.0,0004.44,0002.62,0002.06
2023-05-27 06:28:00,,0830.9,5.00,0.00,29.6,28.0,00.0,38.0,31.2,25.4,0000.0,0004.49,0002.62,0002.05
2023-05-27 06:29:00,,0830.9,5.00,0.00,29.6,28.0,00.0,38.0,31.2,25.4,0000.0,0004.51,0002.66,0002.06
2023-05-27 06:30:00,,0830.9,4.99,0.00,29.7,28.0,00.0,38.0,31.2,25.6,0000.0,0004.49,0002.69,0002.08
2023-05-27 06:31:00,,0830.8,5.00,0.00,29.6,28.0,00.0,38.0,31.2,25.5,0000.0,0004.52,0002.69,0002.08
2023-05-27 06:32:00,,0830.8,5.00,0.00,29.6,28.0,00.0,38.0,31.2,25.5,0000.0,0004.63,0002.70,0002.09
2023-05-27 06:33:00,,0830.8,5.00,0.00,29.6,27.9,00.0,38.0,31.2,25.5,0000.0,0004.71,0002.73,0002.10
2023-05-27 06:34:00,,0830.8,5.00,0.00,29.6,28.0,00.0,38.0,31.2,25.6,0000.0,0004.26,0002.75,0002.10
2023-05-27 06:35:00,,0830.8,5.00,0.00,29.6,28.0,00.0,38.0,31.2,25.6,0000.0,0004.18,0002.75,0002.09
2023-05-27 06:36:00,,0830.8,5.00,0.00,29.6,27.9,00.0,38.0,31.2,26.0,0000.0,0004.16,0002.76,0002.09
2023-05-27 06:37:00,,0830.9,5.01,0.00,29.6,28.0,00.0,38.0,31.2,26.7,0000.0,0004.11,0002.74,0002.10
2023-05-27 06:38:00,,0830.9,5.00,0.00,29.6,28.0,00.0,38.0,31.2,26.9,0000.0,0003.99,0002.69,0002.11
2023-05-27 06:39:00,,0830.9,5.00,0.00,29.6,28.0,00.0,38.0,31.2,27.0,0000.0,0004.43,0002.64,0002.12
2023-05-27 06:40:00,,0830.9,5.00,0.00,29.6,28.0,00.0,38.0,31.2,27.1,0000.0,0005.01,0002.63,0002.14
2023-05-27 06:41:00,,0830.9,5.00,0.00,29.6,28.0,00.0,38.0,31.2,27.0,0000.0,0004.96,0002.61,0002.16
2023-05-27 06:42:00,,0830.8,5.00,0.00,29.6,28.0,00.0,38.0,31.2,26.9,0000.0,0005.04,0002.67,0002.18
2023-05-27 06:43:00,,0830.8,5.00,0.00,29.6,28.0,00.0,38.0,31.2,26.9,0000.0,0005.05,0002.71,0002.21
2023-05-27 06:44:00,,0830.8,5.00,0.00,29.6,28.0,00.0,38.0,31.2,26.8,0000.0,0005.20,0002.77,0002.23
2023-05-27 06:45:00,,0830.8,5.01,0.00,29.6,28.0,00.0,38.0,31.2,26.7,0000.0,0005.16,0002.78,0002.27
2023-05-27 06:46:00,,0830.9,5.00,0.00,29.6,28.0,00.0,38.0,31.2,26.9,0000.0,0005.19,0002.81,0002.30
2023-05-27 06:47:00,,0830.8,5.00,0.00,29.6,28.0,00.0,38.0,31.2,26.8,0000.0,0005.17,0002.83,0002.32
2023-05-27 06:48:00,,0830.9,4.99,0.00,29.6,28.0,00.0,38.0,31.2,26.9,0000.0,0005.18,0002.86,0002.35
2023-05-27 06:49:00,,0830.9,5.01,0.00,29.6,28.0,00.0,38.0,31.2,27.0,0000.0,0005.33,0002.94,0002.38
2023-05-27 06:50:00,,0830.9,5.01,0.00,29.7,28.0,00.0,38.0,31.2,27.2,0000.0,0005.14,0003.01,0002.39
2023-05-27 06:51:00,,0830.8,4.99,0.00,29.7,28.0,00.0,38.0,31.2,27.4,0000.0,0004.30,0003.02,0002.39
2023-05-27 06:52:00,,0830.8,4.99,0.00,29.7,28.0,00.0,38.0,31.2,27.5,0000.0,0004.41,0003.04,0002.38
2023-05-27 06:53:00,,0830.8,4.99,0.00,29.7,28.0,00.0,38.0,31.2,27.3,0000.0,0004.39,0003.02,0002.37
2023-05-27 06:54:00,,0830.8,5.01,0.00,29.7,28.0,00.0,38.0,31.2,27.1,0000.0,0004.25,0002.96,0002.34
2023-05-27 06:55:00,,0830.8,5.01,0.00,29.7,28.0,00.0,38.0,31.2,27.1,0000.0,0004.06,0002.90,0002.32
2023-05-27 06:56:00,,0830.8,5.00,0.00,29.7,28.0,00.0,38.0,31.2,27.1,0000.0,0004.03,0002.87,0002.28
2023-05-27 06:57:00,,0830.9,4.98,0.00,29.7,28.0,00.0,38.0,31.2,27.1,0000.0,0003.97,0002.82,0002.26
2023-05-27 06:58:00,,0830.8,5.00,0.00,29.6,28.0,00.0,38.0,31.2,27.1,0000.0,0003.96,0002.79,0002.22
2023-05-27 06:59:00,,0830.8,5.00,0.00,29.6,28.0,00.0,38.0,31.2,27.1,0000.0,0003.99,0002.78,0002.20
